Weather History for George, South Africa

Change the Weather History Date:

Saturday, December 14, 2013

  Actual Average Record
Temperature  
Mean Temperature 66 °F -  
Max Temperature 73 °F 73 °F 86 °F (1999)
Min Temperature 59 °F 57 °F 51 °F (2011)
Cooling Degree Days 1    
Growing Degree Days 16 (Base 50)    
Moisture  
Dew Point 60 °F    
Average Humidity 77    
Maximum Humidity 88    
Minimum Humidity 53    
Precipitation  
Precipitation 0.00 in - - ()
Sea Level Pressure  
Sea Level Pressure 29.89 in    
Wind  
Wind Speed 5 mph ()    
Max Wind Speed 14 mph    
Max Gust Speed -    
Visibility 7.4 miles    
Events      
Averages and records for this station are not official NWS values.
T = Trace of Precipitation, MM = Missing Value Source: Averaged Metar Reports

Daily Weather History Graph

Daily Weather History Graph

Search for Another Location

Airport:

Trip Planner

Search our weather history database for the weather conditions in past years. The results will help you decide how hot, cold, wet, or windy it might be!

Date:

Astronomy

Dec. 14, 2013 Rise Set
Actual Time 5:13 AM SAST 7:37 PM SAST
Civil Twilight 4:44 AM SAST 8:06 PM SAST
Nautical Twilight 4:08 AM SAST 8:42 PM SAST
Astronomical Twilight 3:28 AM SAST 9:21 PM SAST
Moon 5:05 PM SAST (12/14) 3:05 AM SAST (12/14)
Length of Visible Light 15h 22m
Length of Day
14h 24m
Waxing Gibbous, 92% of the Moon is Illuminated
Dec 14
Waxing Gibbous
Dec 17
Full
Dec 25
Last Quarter
Jan 1
New
Jan 8
First Quarter

Hourly Weather History & Observations

Time (SAST) Temp. Dew Point Humidity Pressure Visibility Wind Dir Wind Speed Gust Speed Precip Events Conditions
12:00 AM 62.6 °F 59.0 °F 88% 29.92 in 6.2 mi Variable 2.3 mph - N/A   Mostly Cloudy
1:00 AM 62.6 °F 59.0 °F 88% 29.92 in 6.2 mi NNW 4.6 mph - N/A   Mostly Cloudy
2:00 AM 62 °F 59 °F 85% 29.90 in 6 mi WNW 4.6 mph - -  
2:00 AM 62.6 °F 59.0 °F 88% 29.89 in - NW 4.6 mph - N/A   Clear
3:00 AM 60.8 °F 57.2 °F 88% 29.89 in - NW 4.6 mph - N/A   Clear
4:00 AM 60.8 °F 57.2 °F 88% 29.86 in - WNW 4.6 mph - N/A   Clear
5:00 AM 60 °F 56 °F 81% 29.88 in 12 mi NW 4.6 mph - -   Scattered Clouds
5:00 AM 60.8 °F 55.4 °F 82% 29.86 in 6.2 mi NW 4.6 mph - N/A   Partly Cloudy
6:00 AM 62.6 °F 57.2 °F 82% 29.89 in 6.2 mi NW 6.9 mph - N/A   Scattered Clouds
7:00 AM 62.6 °F 57.2 °F 82% 29.89 in 6.2 mi WNW 4.6 mph - N/A   Scattered Clouds
8:00 AM 66 °F 60 °F 75% 29.93 in 12 mi WSW 9.2 mph - -   Mostly Cloudy
8:00 AM 66.2 °F 60.8 °F 83% 29.92 in 6.2 mi WSW 9.2 mph - N/A   Scattered Clouds
9:00 AM 68.0 °F 60.8 °F 78% 29.92 in 6.2 mi West 8.1 mph - N/A   Scattered Clouds
10:00 AM 69.8 °F 60.8 °F 73% 29.92 in 6.2 mi WSW 6.9 mph - N/A   Scattered Clouds
11:00 AM 74 °F 60 °F 53% 29.90 in 12 mi SW 6.9 mph - -   Partly Cloudy
11:00 AM 73.4 °F 60.8 °F 65% 29.89 in 6.2 mi SW 6.9 mph - N/A   Scattered Clouds
12:00 PM 73.4 °F 60.8 °F 65% 29.86 in 6.2 mi SSW 13.8 mph - N/A   Partly Cloudy
1:00 PM 73.4 °F 60.8 °F 65% 29.86 in 6.2 mi SSW 9.2 mph - N/A   Partly Cloudy
2:00 PM 71 °F 61 °F 62% 29.87 in 12 mi South 10.4 mph - -   Partly Cloudy
2:00 PM 71.6 °F 62.6 °F 73% 29.86 in 6.2 mi South 10.4 mph - N/A   Scattered Clouds
3:00 PM 73.4 °F 62.6 °F 69% 29.86 in 6.2 mi SSE 6.9 mph - N/A   Partly Cloudy
4:00 PM 71.6 °F 60.8 °F 69% 29.83 in 6.2 mi SSE 6.9 mph - N/A   Partly Cloudy
5:00 PM 70 °F 60 °F 63% 29.86 in 12 mi SSE 9.2 mph - -   Partly Cloudy
5:00 PM 69.8 °F 60.8 °F 73% 29.86 in 6.2 mi SSE 9.2 mph - N/A   Scattered Clouds
6:00 PM 69.8 °F 60.8 °F 73% 29.83 in 6.2 mi East 5.8 mph - N/A   Partly Cloudy
7:00 PM 68.0 °F 59.0 °F 73% 29.86 in 6.2 mi SE 4.6 mph - N/A   Partly Cloudy
8:00 PM 67 °F 60 °F 73% 29.90 in 12 mi SE 2.3 mph - -   Scattered Clouds
8:00 PM 66.2 °F 60.8 °F 83% 29.89 in 6.2 mi Variable 2.3 mph - N/A   Partly Cloudy
9:00 PM 66.2 °F 62.6 °F 88% 29.92 in 6.2 mi SSW 4.6 mph - N/A   Mostly Cloudy
10:00 PM 64.4 °F 60.8 °F 88% 29.92 in 6.2 mi Variable 2.3 mph - N/A   Mostly Cloudy
11:00 PM 66.2 °F 60.8 °F 83% 29.89 in 6.2 mi NW 3.5 mph - N/A   Mostly Cloudy